Regional Weather Roundup
Issued by NWS

Home | Current Version | Previous Version | Text Only | Print | Product List | Glossary On
Versions: 1 2 3 4 5 6 7 8 9 10 11 12 13 14 15 16 17 18 19 20 21 22 23 24 25 26 27 28 29 30 31 32 33 34 35 36 37 38 39 40 41 42 43 44 45 46 47 48 49 50
302
ASUS43 KDTX 230710
RWRMI
MICHIGAN HOURLY REGIONAL WEATHER ROUNDUP
NATIONAL WEATHER SERVICE DETROIT/PONTIAC MI
300 AM EDT WED MAY 23 2018

NOTE: "FAIR" INDICATES FEW OR NO CLOUDS BELOW 12,000 FEET WITH NO
SIGNIFICANT WEATHER AND/OR OBSTRUCTION TO VISIBILITY.

MIZ047>049-052>055-059>063-066>070-074>076-081>083-230800-
SOUTHEAST LOWER MICHIGAN

CITY           SKY/WX    TMP DP  RH WIND       PRES   REMARKS
ADRIAN         FAIR      55  54  96 NW5       30.09S
ALMA           FOG       49  49 100 W3        30.09R VSB 1/4
ANN ARBOR      FAIR      52  51  97 CALM      30.07S FOG
BAD AXE        FOG       41  41 100 CALM      30.07S VSB 1/4
CARO           FOG       45  43  95 CALM      30.07R VSB 1/2
DETROIT CITY   FAIR      55  52  89 W3        30.07R
DETROIT        FAIR      55  52  89 N5        30.07S
FLINT          FAIR      49  48  97 W5        30.08S FOG
GROSSE ILE     FAIR      54  53  95 CALM      30.06S
HILLSDALE      FAIR      52  52 100 CALM      30.09S FOG
HOWELL         MOCLDY    50  49  99 W3        30.08S FOG

CITY           SKY/WX    TMP DP  RH WIND       PRES   REMARKS
JACKSON        FOG       51  51 100 SW5       30.09S VSB 3/4
LAMBERTVILLE     N/A     54  52  90 CALM      30.08R FOG
LANSING        FAIR      52  52 100 W3        30.09S
LAPEER         FOG       45  44  99 CALM      30.08R VSB<1/4
MASON          FAIR      54  52  94 CALM      30.09R
MONROE         FAIR      53  51  94 CALM      30.07S FOG
MT. CLEMENS    FOG       48  48 100 CALM        N/A  VSB 1/4
PONTIAC        FAIR      53  53 100 NW5       30.06S
PORT HOPE        N/A     52  50  93 SW7       30.03S
PORT HURON     FOG       46  45  93 CALM      30.06F VSB 1/4
TRI CITIES     FAIR      54  53  97 SW3       30.07S
MIDLAND        FOG       47  47 100 CALM      30.07S VSB 1/4
TROY           FAIR      57  54  91 W3        30.08S
SAGINAW HB       N/A     52  50  93 CALM      30.06S FOG
$$
MIZ043>046-050>051-056>058-064>065-071>073-077>080-230800-
SOUTHWEST LOWER MICHIGAN

CITY           SKY/WX    TMP DP  RH WIND       PRES   REMARKS
BATTLE CREEK   FAIR      49  48  97 SW5       30.10S
BENTON HARBOR  FAIR      46  42  86 CALM      30.11R
BIG RAPIDS     FAIR      49  47  95 W3        30.09S
COLDWATER      FAIR      53  53 100 CALM      30.10S
FREMONT        FAIR      47  47 100 CALM      30.10R FOG
HOLLAND        FAIR      47  44  90 CALM      30.11R
GRAND RAPIDS   FAIR      49  48  97 CALM      30.09S FOG
IONIA          FAIR      50  50  99 W6        30.09R FOG
KALAMAZOO      FAIR      48  47  96 CALM      30.11R FOG
LUDINGTON        N/A     42  42 100 CALM      30.09F
MARSHALL       FOG       51  49  95 CALM      30.09F VSB 1/4
MOUNT PLEASANT FAIR      54  53  99 W3        30.07R
MUSKEGON       FOG       47  46  97 CALM      30.11R VSB 1/4
SOUTH HAVEN    CLOUDY    44  43  96 CALM      30.11R FOG
$$
MIZ016>042-230800-
NORTHERN LOWER MICHIGAN

CITY           SKY/WX    TMP DP  RH WIND       PRES   REMARKS
ALPENA         FAIR      52  47  83 W3        30.05S
BEAVER ISLAND  FAIR      47  46  97 W8        30.06S
BELLAIRE       FAIR      44  43  97 CALM      30.08S FOG
CADILLAC       FAIR      43  43  99 CALM      30.09R
CHARLEVOIX     FAIR      47  47 100 CALM      30.09S
FRANKFORT      FAIR      47  47 100 CALM      30.10R
GAYLORD        FAIR      48  45  89 CALM      30.07S
GRAYLING       FAIR      46  44  93 CALM      30.07R
HARBOR SPRINGS FAIR      43  43  99 CALM      30.07S
HOUGHTON LAKE  FAIR      45  43  93 CALM      30.09S FOG
MANISTEE       MOCLDY    42  41  96 E3        30.10R FOG
OSCODA         FAIR      49  49  98 W5        30.04R FOG
PELLSTON       FAIR      43  42  97 CALM      30.07R
ROGERS CITY    FAIR      51  46  82 W6        30.06S
TRAVERSE CITY  FAIR      48  46  93 CALM      30.07R
$$
MIZ007>008-015-230800-
EASTERN UPPER MICHIGAN

CITY           SKY/WX    TMP DP  RH WIND       PRES   REMARKS
KINROSS        FAIR      46  38  73 W6        30.06S
MACKINAC ISLAN FAIR      47  47 100 W6        30.06R
NEWBERRY       FAIR      46  46  97 CALM      30.07R
S. S. MARIE    FAIR      52  39  61 W7        30.04S
MUNISING         N/A     47  32  56 S8        30.05R
$$
MIZ004>006-011>014-085-230800-
CENTRAL UPPER MICHIGAN

CITY           SKY/WX    TMP DP  RH WIND       PRES   REMARKS
MANISTIQUE     FAIR      40  39  95 CALM      30.06R
ESCANABA       FAIR      49  47  93 CALM      30.06R
MENOMINEE      FAIR      53  52  96 N3        30.06R
SAWYER-GWINN   FAIR      44  38  78 CALM      30.08R
$$
MIZ001>003-009>011-084-230800-
WESTERN UPPER MICHIGAN

CITY           SKY/WX    TMP DP  RH WIND       PRES   REMARKS
IRON MOUNTAIN  FAIR      49  43  80 NW3       30.07R
HOUGHTON       FAIR      51  37  58 NW5       30.05R
COPPER HARBOR    N/A     52  42  69 S6        30.03R
IRONWOOD       LGT RAIN  48  47  96 W3        30.09S
$$

ABBREVIATIONS USED IN REMARKS
   TC - TEMPERATURE IN CELSIUS
  WCI - WIND CHILL INDEX
   HX - HEAT INDEX
  VSB - VISIBILITY





USA.gov is the U.S. government's official web portal to all federal, state and local government web resources and services.